FW3961 Weather Reports


Display with metric or nautical units.
time (UTC)temp
F
wind
direction
speed
MPH
gust
MPH
rain 1hr
in
rain 24hr
in
rain mn
in
humidity
%
barometer
mb
20260906022638 64 246 0.0 2.0 0.00 0.03 0.01 76 1016.5
20260906022132 64 246 0.0 2.0 0.00 0.03 0.01 75 1016.5
20260906021626 64 242 0.0 2.0 0.00 0.03 0.01 75 1016.4
20260906021120 65 242 1.0 5.0 0.00 0.04 0.01 74 1016.4
20260906020614 65 288 1.0 5.0 0.00 0.04 0.01 74 1016.3
20260906020448 66 131 1.0 2.0 0.00 0.05 0.01 73 1016.1
20260906020338 65 309 1.0 4.0 0.00 0.05 0.01 74 1016.2
20260906015056 66 264 1.0 2.0 0.00 0.05 0.01 72 1016.1
20260906014550 67 252 1.0 5.0 0.00 0.05 0.01 72 1016.2
20260906014044 67 252 1.0 5.0 0.00 0.05 0.01 71 1016.2
20260906013542 67 294 1.0 3.0 0.00 0.07 0.01 67 1016.2
20260906013538 67 355 1.0 4.0 0.00 0.06 0.01 69 1016.3
20260906012531 68 171 1.0 4.0 0.00 0.08 0.01 67 1016.2
20260906012526 68 329 1.0 4.0 0.00 0.07 0.01 66 1016.2
20260906011517 68 163 1.0 4.0 0.00 0.08 0.01 65 1016.3
20260906011509 68 347 1.0 3.0 0.00 0.08 0.01 66 1016.3
20260906010502 68 314 1.0 2.0 0.00 0.08 0.01 65 1016.4
20260906005956 68 314 0.0 2.0 0.00 0.08 0.01 65 1016.4
20260906005450 68 314 0.0 2.0 0.00 0.08 0.01 66 1016.5
20260906004949 69 314 0.0 2.0 0.00 0.08 0.01 65 1016.5
20260906004452 69 355 1.0 2.0 0.00 0.08 0.01 65 1016.5
20260906003950 69 355 1.0 3.0 0.00 0.08 0.01 64 1016.4
20260906003449 69 275 1.0 3.0 0.00 0.08 0.01 64 1016.4
20260906002950 70 166 1.0 3.0 0.00 0.08 0.01 64 1016.4
20260906002448 70 58 1.0 3.0 0.00 0.08 0.01 64 1016.4
20260906001950 70 34 2.0 5.0 0.00 0.08 0.01 62 1016.3
20260906001946 70 38 1.0 4.0 0.00 0.08 0.01 64 1016.3
20260906000946 70 66 1.0 5.0 0.00 0.08 0.01 64 1016.2
20260906000448 71 161 1.0 4.0 0.00 0.08 0.01 63 1016.2
20260905235945 71 174 1.0 3.0 0.00 0.08 0.01 63 1016.2
20260905235446 71 286 1.0 4.0 0.00 0.08 0.01 62 1016.1
20260905234945 71 240 1.0 4.0 0.00 0.08 0.01 61 1016.2
20260905234446 71 351 2.0 4.0 0.00 0.08 0.01 59 1016.1
20260905233941 71 228 2.0 3.0 0.00 0.08 0.01 60 1016.1
20260905233441 71 294 1.0 3.0 0.00 0.08 0.01 61 1016.2
20260905232941 70 324 0.0 3.0 0.00 0.08 0.01 62 1016.2
20260905232442 70 269 0.0 2.0 0.00 0.08 0.01 62 1016.3
20260905232214 69 269 1.0 2.0 0.00 0.08 0.01 63 1016.4
20260905231448 70 215 1.0 5.0 0.00 0.08 0.01 62 1016.6
20260905231443 69 204 1.0 4.0 0.00 0.08 0.01 61 1016.5
20260905230441 69 198 1.0 5.0 0.00 0.08 0.01 63 1016.6
20260905225942 68 202 1.0 3.0 0.00 0.08 0.01 66 1016.6
20260905225441 68 238 1.0 3.0 0.00 0.08 0.01 66 1016.5
20260905224942 68 88 0.0 2.0 0.00 0.08 0.01 66 1016.7
20260905224442 69 80 0.0 3.0 0.00 0.08 0.01 66 1016.6
20260905223941 69 149 0.0 3.0 0.00 0.08 0.01 65 1016.8
20260905223442 69 101 1.0 3.0 0.00 0.08 0.01 66 1016.7
20260905222941 70 22 2.0 4.0 0.00 0.08 0.01 63 1016.7
20260905222441 71 317 2.0 5.0 0.00 0.08 0.01 62 1016.8
20260905221942 72 311 2.0 5.0 0.00 0.08 0.01 64 1016.8
20260905221445 73 223 2.0 5.0 0.00 0.08 0.01 60 1016.8
20260905220938 72 208 1.0 4.0 0.00 0.08 0.01 58 1016.8
20260905220432 71 221 1.0 3.0 0.00 0.08 0.01 60 1016.9
20260905215927 71 198 2.0 4.0 0.00 0.08 0.01 60 1016.9
20260905215425 71 195 1.0 3.0 0.00 0.08 0.01 62 1017.0
20260905215421 71 206 1.0 4.0 0.00 0.08 0.01 60 1016.9
20260905214409 70 122 0.0 3.0 0.00 0.08 0.01 66 1017.0
20260905213903 70 71 1.0 5.0 0.00 0.08 0.01 66 1017.1
20260905213357 70 69 2.0 5.0 0.00 0.08 0.01 65 1017.1
20260905212851 69 94 1.0 3.0 0.00 0.08 0.01 69 1017.0
20260905212347 68 66 0.0 3.0 0.00 0.08 0.01 70 1017.1
20260905211839 67 66 1.0 3.0 0.00 0.09 0.01 68 1017.2
20260905211333 68 66 1.0 3.0 0.00 0.09 0.01 67 1017.2
20260905210827 68 230 0.0 3.0 0.00 0.10 0.01 67 1017.2
20260905210317 69 162 0.0 1.0 0.00 0.11 0.01 67 1017.3
20260905205814 69 161 1.0 2.0 0.00 0.11 0.01 68 1017.3
20260905205313 70 279 1.0 4.0 0.00 0.11 0.01 65 1017.4
20260905205309 69 161 1.0 4.0 0.00 0.11 0.01 65 1017.3
20260905204258 70 294 1.0 3.0 0.00 0.11 0.01 65 1017.4
20260905203750 69 143 1.0 3.0 0.00 0.11 0.01 68 1017.5
20260905203244 69 216 1.0 4.0 0.00 0.11 0.01 67 1017.5
20260905202743 69 268 1.0 4.0 0.00 0.11 0.01 66 1017.5
20260905202739 68 263 2.0 4.0 0.00 0.11 0.01 66 1017.5
20260905201727 69 331 1.0 4.0 0.00 0.11 0.01 68 1017.5
20260905201221 68 210 1.0 2.0 0.00 0.11 0.01 68 1017.6
20260905200715 68 302 1.0 3.0 0.00 0.11 0.01 68 1017.6
20260905200211 68 322 1.0 4.0 0.00 0.11 0.01 68 1017.6
20260905200042 68 223 1.0 2.0 0.00 0.11 0.01 69 1017.7
20260905195934 68 213 1.0 4.0 0.00 0.11 0.01 69 1017.6
20260905194650 68 231 1.0 4.0 0.00 0.11 0.01 70 1017.8
20260905194156 67 213 1.0 3.0 0.00 0.11 0.01 73 1017.8
20260905194146 68 244 1.0 4.0 0.00 0.11 0.01 71 1017.8
20260905193647 68 189 1.0 3.0 0.00 0.11 0.01 72 1017.9
20260905192647 66 229 0.0 3.0 0.00 0.11 0.01 75 1018.0
20260905192147 65 212 1.0 3.0 0.00 0.11 0.01 72 1018.0
20260905191647 66 212 1.0 3.0 0.00 0.11 0.01 74 1018.1
20260905191147 66 205 1.0 3.0 0.00 0.11 0.01 74 1018.2
20260905190647 66 201 1.0 3.0 0.00 0.11 0.01 74 1018.1
20260905190147 65 322 1.0 3.0 0.00 0.11 0.01 74 1018.2
20260905185651 64 201 0.0 2.0 0.00 0.11 0.01 76 1018.2
20260905185147 64 211 0.0 3.0 0.00 0.11 0.01 76 1018.3
20260905184647 64 217 0.0 3.0 0.00 0.11 0.01 77 1018.3
20260905184147 64 219 0.0 2.0 0.00 0.11 0.01 77 1018.3
20260905183647 64 219 0.0 3.0 0.00 0.11 0.01 78 1018.3
20260905183147 64 227 0.0 3.0 0.00 0.12 0.01 80 1018.4
20260905182649 62 166 1.0 4.0 0.00 0.12 0.01 80 1018.3
20260905182645 63 166 1.0 4.0 0.00 0.12 0.01 81 1018.3
20260905181638 62 166 1.0 4.0 0.00 0.12 0.01 81 1018.2
20260905181136 62 168 1.0 4.0 0.00 0.12 0.01 83 1018.2
20260905180626 62 263 1.0 3.0 0.00 0.12 0.01 83 1018.3
20260905180121 62 186 0.0 2.0 0.00 0.12 0.01 82 1018.2
20260905175615 61 179 0.0 3.0 0.00 0.12 0.01 84 1018.3
20260905175109 61 155 1.0 3.0 0.00 0.12 0.01 85 1018.3
20260905174604 61 136 1.0 3.0 0.00 0.12 0.01 85 1018.3
20260905174105 60 136 1.0 3.0 0.00 0.12 0.01 85 1018.3
20260905173605 60 137 1.0 3.0 0.00 0.12 0.01 87 1018.3
20260905173103 60 137 1.0 3.0 0.00 0.12 0.01 87 1018.3
20260905172605 59 136 1.0 3.0 0.00 0.12 0.01 87 1018.3
20260905172100 59 136 1.0 3.0 0.00 0.12 0.01 87 1018.3
20260905171604 59 136 0.0 3.0 0.00 0.12 0.01 88 1018.4
20260905171058 59 132 0.0 3.0 0.00 0.12 0.01 88 1018.3
20260905170609 59 132 1.0 3.0 0.00 0.12 0.01 89 1018.2
20260905170556 59 132 1.0 3.0 0.00 0.12 0.01 89 1018.3
20260905170056 59 132 1.0 3.0 0.00 0.12 0.01 88 1018.2
20260905165055 58 126 1.0 3.0 0.00 0.12 0.01 90 1018.1
20260905164557 58 126 1.0 3.0 0.00 0.12 0.01 92 1018.1
20260905164553 58 126 1.0 2.0 0.00 0.12 0.01 91 1018.1
20260905163548 58 126 1.0 3.0 0.00 0.12 0.01 92 1018.1
20260905163047 58 127 1.0 3.0 0.00 0.12 0.01 93 1018.1
20260905162546 58 127 1.0 3.0 0.00 0.12 0.01 94 1018.1
20260905162049 57 126 1.0 3.0 0.00 0.12 0.01 94 1018.0
20260905161544 57 126 1.0 3.0 0.00 0.12 0.01 94 1018.0
20260905161045 57 126 1.0 3.0 0.00 0.12 0.01 94 1018.0
20260905160548 56 140 1.0 3.0 0.00 0.12 0.01 94 1018.1
20260905160544 56 140 1.0 3.0 0.00 0.12 0.01 95 1018.0
20260905155549 56 140 1.0 3.0 0.00 0.12 0.01 95 1018.1
20260905155545 56 140 1.0 3.0 0.00 0.12 0.01 95 1018.0
20260905154544 56 140 1.0 2.0 0.00 0.12 0.01 95 1017.9
20260905154045 56 140 1.0 3.0 0.00 0.12 0.01 95 1017.9
20260905153545 56 139 2.0 3.0 0.00 0.12 0.01 95 1017.9
20260905153045 56 139 2.0 3.0 0.01 0.12 0.01 95 1018.0
20260905152548 55 139 2.0 3.0 0.01 0.12 0.01 95 1018.0
20260905152048 55 139 1.0 3.0 0.01 0.12 0.01 95 1018.0
20260905151549 55 139 1.0 2.0 0.01 0.12 0.01 94 1018.0
20260905151048 55 139 1.0 3.0 0.01 0.12 0.01 95 1018.0
20260905150545 55 139 1.0 3.0 0.01 0.12 0.01 94 1018.0
20260905150045 55 139 1.0 2.0 0.01 0.12 0.01 94 1018.0
20260905145546 54 139 0.0 2.0 0.01 0.12 0.01 94 1018.0
20260905145044 54 139 0.0 0.0 0.01 0.12 0.01 94 1018.0
20260905144544 54 139 0.0 0.0 0.01 0.12 0.01 94 1018.1
20260905144036 55 139 0.0 0.0 0.01 0.12 0.01 94 1018.1
20260905144032 54 139 0.0 0.0 0.01 0.12 0.01 94 1018.0
20260905143024 54 139 0.0 0.0 0.00 0.11 0.00 94 1018.0
20260905142517 54 139 0.0 0.0 0.00 0.11 0.00 94 1018.0
20260905142012 54 139 0.0 0.0 0.00 0.11 0.00 94 1018.0
20260905141508 54 139 0.0 0.0 0.00 0.11 0.00 94 1018.0
20260905141504 54 139 0.0 0.0 0.00 0.11 0.00 94 1018.0
20260905140453 54 139 0.0 0.0 0.00 0.12 0.00 94 1018.0
20260905135948 54 139 0.0 0.0 0.00 0.12 0.00 94 1018.0
20260905135442 54 139 0.0 0.0 0.00 0.12 0.00 94 1017.9
20260905135438 54 139 0.0 0.0 0.00 0.12 0.00 93 1018.0
20260905134429 54 139 0.0 0.0 0.00 0.12 0.00 93 1017.9
20260905133923 53 134 0.0 0.0 0.00 0.12 0.00 93 1017.9
20260905133418 53 134 0.0 0.0 0.00 0.12 0.00 93 1017.9
20260905132912 53 134 0.0 0.0 0.00 0.12 0.00 93 1017.9
20260905132406 53 134 0.0 0.0 0.00 0.12 0.00 93 1017.8
20260905132401 53 134 0.0 0.0 0.00 0.12 0.00 93 1017.8
20260905131354 53 134 0.0 0.0 0.00 0.12 0.00 93 1017.8
20260905130848 54 134 0.0 0.0 0.00 0.12 0.00 93 1017.8
20260905130844 54 134 0.0 0.0 0.00 0.12 0.00 93 1017.8
20260905125835 54 134 0.0 0.0 0.00 0.12 0.00 93 1017.7
20260905125330 54 134 0.0 0.0 0.00 0.12 0.00 93 1017.6
20260905124824 54 134 0.0 0.0 0.00 0.12 0.00 93 1017.6
20260905124317 54 134 0.0 0.0 0.00 0.12 0.00 93 1017.7
20260905123812 54 134 0.0 0.0 0.00 0.12 0.00 93 1017.7
20260905123306 54 134 0.0 0.0 0.00 0.12 0.00 93 1017.6
20260905122800 54 134 0.0 0.0 0.00 0.12 0.00 93 1017.5
20260905122253 54 134 0.0 0.0 0.00 0.12 0.00 93 1017.4
20260905121747 54 134 0.0 0.0 0.00 0.12 0.00 94 1017.5
20260905121243 54 134 0.0 0.0 0.00 0.12 0.00 94 1017.6
20260905121239 54 134 0.0 0.0 0.00 0.12 0.00 93 1017.5
20260905120231 54 134 0.0 0.0 0.00 0.12 0.00 94 1017.5
20260905120227 54 134 0.0 0.0 0.00 0.12 0.00 94 1017.4
20260905115218 54 134 0.0 0.0 0.00 0.12 0.00 94 1017.5
20260905114713 54 134 0.0 0.0 0.00 0.12 0.00 94 1017.5
20260905114206 54 134 0.0 0.0 0.00 0.12 0.00 94 1017.5
20260905113700 54 134 0.0 0.0 0.00 0.12 0.00 94 1017.6
20260905113156 54 134 0.0 0.0 0.00 0.12 0.00 94 1017.5
20260905112649 54 134 0.0 0.0 0.00 0.12 0.00 94 1017.4
20260905112141 54 134 0.0 0.0 0.00 0.12 0.00 94 1017.4
20260905111638 54 134 0.0 0.0 0.00 0.12 0.00 94 1017.4
20260905111130 55 134 0.0 0.0 0.00 0.12 0.00 94 1017.5
20260905111126 54 134 0.0 1.0 0.00 0.12 0.00 94 1017.4
20260905110118 55 134 1.0 2.0 0.00 0.12 0.00 94 1017.3
20260905105612 55 134 1.0 2.0 0.00 0.12 0.00 94 1017.4
20260905105105 55 134 1.0 2.0 0.00 0.12 0.00 94 1017.4
20260905104600 55 134 1.0 2.0 0.00 0.12 0.00 94 1017.4
20260905104056 55 134 1.0 2.0 0.00 0.12 0.00 94 1017.5
20260905104052 55 134 1.0 2.0 0.00 0.12 0.00 94 1017.4
20260905103041 55 134 1.0 2.0 0.00 0.12 0.00 94 1017.4
20260905102536 55 134 1.0 2.0 0.00 0.12 0.00 94 1017.5
20260905102030 55 134 1.0 2.0 0.00 0.13 0.00 94 1017.4
20260905101524 55 134 1.0 2.0 0.00 0.13 0.00 94 1017.5
20260905101018 54 134 1.0 2.0 0.00 0.13 0.00 94 1017.4
20260905100511 54 134 0.0 2.0 0.00 0.13 0.00 94 1017.5
20260905100006 55 134 0.0 0.0 0.00 0.14 0.00 94 1017.4
20260905095459 55 134 0.0 0.0 0.00 0.15 0.00 94 1017.4
20260905094954 55 134 0.0 0.0 0.00 0.15 0.00 94 1017.5
20260905094447 55 134 0.0 0.0 0.00 0.16 0.00 94 1017.4
20260905093941 55 134 0.0 0.0 0.00 0.17 0.00 94 1017.5
20260905093436 55 134 0.0 0.0 0.00 0.18 0.00 94 1017.5
20260905092930 55 134 0.0 0.0 0.00 0.18 0.00 94 1017.5
20260905092424 54 134 0.0 2.0 0.00 0.19 0.00 94 1017.5
20260905091918 54 134 0.0 2.0 0.00 0.19 0.00 94 1017.5
20260905091416 54 134 0.0 0.0 0.00 0.19 0.00 94 1017.4
20260905090916 54 134 0.0 0.0 0.00 0.19 0.00 94 1017.5
20260905090420 54 134 0.0 0.0 0.00 0.19 0.00 94 1017.4
20260905090416 54 134 0.0 0.0 0.00 0.19 0.00 94 1017.4
20260905085416 54 134 0.0 0.0 0.00 0.20 0.00 94 1017.4
20260905084915 54 134 0.0 0.0 0.00 0.20 0.00 94 1017.4
20260905084415 54 134 0.0 0.0 0.00 0.21 0.00 94 1017.4
20260905083913 54 134 0.0 0.0 0.00 0.21 0.00 94 1017.3
20260905083413 54 134 0.0 1.0 0.00 0.21 0.00 94 1017.4
20260905082914 54 134 1.0 2.0 0.00 0.22 0.00 93 1017.4
20260905082413 54 134 1.0 2.0 0.00 0.22 0.00 94 1017.3
20260905082144 54 134 1.0 2.0 0.00 0.22 0.00 94 1017.3
20260905081420 54 134 1.0 2.0 0.00 0.24 0.00 93 1017.3
20260905081416 54 134 1.0 2.0 0.00 0.23 0.00 94 1017.3
20260905080414 54 134 1.0 2.0 0.00 0.25 0.00 93 1017.3
20260905075913 55 134 1.0 3.0 0.00 0.25 0.00 93 1017.2
20260905075422 55 134 1.0 3.0 0.00 0.27 0.00 94 1017.2
20260905075414 55 134 2.0 3.0 0.00 0.26 0.00 94 1017.2
20260905074417 55 134 1.0 2.0 0.00 0.27 0.00 94 1017.3
20260905073922 55 134 1.0 2.0 0.00 0.27 0.00 94 1017.2
20260905073918 55 134 1.0 2.0 0.00 0.27 0.00 94 1017.2
20260905072919 55 134 1.0 2.0 0.00 0.27 0.00 94 1017.2
20260905072914 55 134 1.0 2.0 0.00 0.27 0.00 94 1017.2
20260905071911 55 134 1.0 2.0 0.00 0.27 0.00 94 1017.2
20260905071412 55 134 1.0 2.0 0.00 0.27 0.00 94 1017.1
20260905070912 55 134 1.0 2.0 0.00 0.27 0.00 94 1017.1
20260905070412 55 134 0.0 2.0 0.00 0.27 0.00 94 1017.1
20260905065910 55 134 0.0 0.0 0.00 0.27 0.27 94 1017.1
20260905065410 55 134 0.0 0.0 0.00 0.28 0.27 94 1017.2
20260905064910 55 134 0.0 0.0 0.00 0.28 0.27 94 1017.1
20260905064411 55 134 0.0 2.0 0.00 0.28 0.27 94 1017.1
20260905063910 55 134 1.0 2.0 0.00 0.28 0.27 94 1017.1
20260905063416 55 134 0.0 2.0 0.00 0.28 0.27 94 1017.0
20260905062908 55 134 1.0 2.0 0.00 0.28 0.27 94 1016.9
20260905062402 55 134 1.0 3.0 0.00 0.28 0.27 94 1016.8
20260905061901 55 134 1.0 2.0 0.00 0.28 0.27 94 1016.8
20260905061856 55 134 2.0 3.0 0.00 0.28 0.27 94 1016.8
20260905060850 55 134 1.0 2.0 0.00 0.28 0.27 94 1016.8
20260905060334 55 134 1.0 2.0 0.00 0.28 0.27 94 1016.9
20260905055827 55 134 1.0 2.0 0.00 0.28 0.27 94 1016.9
20260905055326 55 134 1.0 2.0 0.00 0.28 0.27 94 1016.8
20260905055322 55 134 1.0 2.0 0.00 0.28 0.27 94 1016.8
20260905054310 55 134 1.0 2.0 0.00 0.28 0.27 94 1016.8
20260905053804 55 134 1.0 2.0 0.00 0.28 0.27 94 1016.9
20260905053258 55 134 1.0 3.0 0.00 0.28 0.27 94 1016.7
20260905052752 55 134 1.0 3.0 0.00 0.28 0.27 94 1016.6
20260905052245 55 144 2.0 3.0 0.00 0.28 0.27 94 1016.6
20260905051740 55 144 2.0 3.0 0.00 0.28 0.27 94 1016.6
20260905051238 55 144 2.0 3.0 0.00 0.28 0.27 94 1016.6
20260905051234 55 144 2.0 3.0 0.00 0.28 0.27 94 1016.6
20260905050224 55 144 2.0 3.0 0.00 0.28 0.27 94 1016.5
20260905045715 55 144 2.0 3.0 0.00 0.28 0.27 94 1016.6
20260905045210 55 144 2.0 3.0 0.00 0.28 0.27 94 1016.5
20260905044704 55 144 1.0 2.0 0.00 0.28 0.27 94 1016.5
20260905044158 55 144 1.0 2.0 0.00 0.28 0.27 94 1016.5
20260905043655 55 144 1.0 2.0 0.00 0.28 0.27 94 1016.5
20260905043652 55 144 1.0 2.0 0.00 0.28 0.27 94 1016.5
20260905042640 55 144 1.0 2.0 0.00 0.28 0.27 94 1016.4
20260905042138 55 144 1.0 2.0 0.01 0.28 0.27 93 1016.3
20260905042134 55 144 1.0 2.0 0.01 0.28 0.27 93 1016.4
20260905041121 55 144 1.0 2.0 0.01 0.28 0.27 93 1016.2
20260905040615 55 144 1.0 2.0 0.01 0.28 0.27 93 1016.1
20260905040110 55 144 0.0 2.0 0.01 0.28 0.27 93 1016.1
20260905035604 55 144 0.0 1.0 0.01 0.28 0.27 93 1016.1
20260905035058 55 144 1.0 1.0 0.01 0.28 0.27 93 1016.1
20260905034552 55 144 1.0 2.0 0.01 0.28 0.27 93 1016.0
20260905034046 55 144 1.0 2.0 0.01 0.28 0.27 93 1015.9
20260905033540 55 144 1.0 2.0 0.01 0.28 0.27 93 1015.8
20260905033034 55 144 1.0 3.0 0.01 0.28 0.27 93 1015.7
20260905032528 55 144 2.0 3.0 0.02 0.28 0.27 93 1015.6
20260905032023 56 144 2.0 3.0 0.01 0.27 0.26 93 1015.6
20260905031516 56 144 2.0 3.0 0.01 0.27 0.26 93 1015.6
20260905031010 56 144 2.0 3.0 0.02 0.27 0.26 93 1015.6
20260905030504 56 144 1.0 3.0 0.02 0.28 0.26 92 1015.5
20260905025957 56 144 1.0 2.0 0.03 0.28 0.26 92 1015.5
20260905025452 56 144 1.0 2.0 0.03 0.28 0.26 92 1015.4
20260905024945 56 144 1.0 2.0 0.03 0.28 0.26 92 1015.5
20260905024442 56 144 1.0 2.0 0.03 0.28 0.26 92 1015.4
20260905023942 56 144 1.0 2.0 0.03 0.28 0.26 92 1015.4
20260905023442 56 144 1.0 2.0 0.04 0.28 0.26 92 1015.4
20260905022946 56 144 1.0 3.0 0.04 0.28 0.25 91 1015.6
20260905022941 56 144 1.0 2.0 0.05 0.28 0.26 91 1015.6